DW0226 Weather Reports


Display with metric or nautical units.
time (UTC)temp
F
wind
direction
speed
MPH
gust
MPH
rain 1hr
in
rain 24hr
in
rain mn
in
humidity
%
barometer
mb
20260906053537 67 0.0 0.0 0.00 0.00 0.00 96 1010.6
20260906052516 67 0.0 0.0 0.00 0.00 0.00 95 1010.6
20260906051536 67 0.0 0.0 0.00 0.00 0.00 95 1010.6
20260906050518 68 0.0 0.0 0.00 0.00 0.00 95 1010.7
20260906045517 68 0.0 0.0 0.00 0.00 0.00 95 1010.7
20260906044516 68 0.0 0.0 0.00 0.00 0.00 95 1010.9
20260906043559 68 0.0 0.0 0.00 0.00 0.00 95 1010.9
20260906042518 69 0.0 0.0 0.00 0.00 0.00 95 1010.8
20260906041517 69 0.0 0.0 0.00 0.00 0.00 95 1010.8
20260906040517 69 0.0 0.0 0.00 0.00 0.00 95 1010.9
20260906035516 69 0.0 0.0 0.00 0.00 0.00 95 1011.0
20260906034517 69 0.0 1.0 0.00 0.00 0.00 95 1011.0
20260906033520 69 0.0 0.0 0.00 0.00 0.00 95 1011.1
20260906032517 70 0.0 0.0 0.00 0.00 0.00 95 1011.0
20260906031515 70 0.0 0.0 0.00 0.00 0.00 95 1011.0
20260906030517 71 0.0 0.0 0.00 0.00 0.00 94 1010.8
20260906025517 71 0.0 0.0 0.00 0.00 0.00 95 1010.8
20260906024517 71 0.0 0.0 0.00 0.00 0.00 94 1010.9
20260906023518 72 0.0 0.0 0.00 0.00 0.00 95 1011.0
20260906022517 72 0.0 0.0 0.00 0.00 0.00 94 1011.0
20260906021517 72 0.0 0.0 0.00 0.00 0.00 94 1010.8
20260906020518 72 0.0 0.0 0.00 0.00 0.00 95 1010.8
20260906015517 73 0.0 0.0 0.00 0.00 0.00 95 1010.9
20260906014517 73 0.0 0.0 0.00 0.00 0.00 95 1010.8
20260906013518 73 0.0 0.0 0.00 0.00 0.00 94 1010.6
20260906012515 73 0.0 0.0 0.00 0.00 0.00 94 1010.4
20260906011517 73 0.0 0.0 0.00 0.00 0.00 94 1010.4
20260906010515 73 0.0 0.0 0.00 0.00 0.00 94 1010.3
20260906005517 73 0.0 0.0 0.00 0.00 0.00 93 1010.2
20260906004515 74 0.0 0.0 0.00 0.00 0.00 93 1009.9
20260906003522 74 0.0 0.0 0.00 0.00 0.00 92 1009.7
20260906002519 75 0.0 0.0 0.00 0.00 0.00 92 1009.5
20260906001519 75 0.0 0.0 0.00 0.00 0.00 92 1009.7
20260906000518 76 0.0 1.0 0.00 0.00 0.00 93 1009.7
20260905235517 76 0.0 0.0 0.00 0.00 0.00 92 1009.7
20260905234519 76 0.0 0.0 0.00 0.00 0.00 92 1009.7
20260905233517 76 0.0 0.0 0.00 0.00 0.00 92 1009.6
20260905232517 76 0.0 1.0 0.00 0.00 0.00 91 1009.5
20260905231517 76 0.0 0.0 0.00 0.00 0.00 92 1009.5
20260905230518 77 0.0 1.0 0.00 0.00 0.00 91 1009.4
20260905225517 77 0.0 2.0 0.00 0.00 0.00 90 1009.5
20260905224519 77 0.0 0.0 0.00 0.00 0.00 90 1009.4
20260905223555 77 0.0 0.0 0.00 0.00 0.00 90 1009.4
20260905222538 77 0.0 0.0 0.00 0.00 0.00 90 1009.2
20260905221536 77 0.0 0.0 0.00 0.00 0.00 89 1009.1
20260905220517 77 0.0 0.0 0.00 0.00 0.00 89 1009.0
20260905215515 78 0.0 0.0 0.00 0.00 0.00 89 1009.1
20260905214517 78 0.0 0.0 0.00 0.00 0.00 89 1009.2
20260905213545 78 0.0 0.0 0.00 0.00 0.00 89 1009.1
20260905212517 77 0.0 0.0 0.00 0.00 0.00 88 1009.0
20260905211517 77 0.0 1.0 0.00 0.00 0.00 88 1008.8
20260905210518 77 270 1.0 3.0 0.00 0.00 0.00 88 1008.9
20260905205517 77 225 1.0 3.0 0.00 0.00 0.00 89 1008.9
20260905204517 77 270 2.0 4.0 0.00 0.00 0.00 88 1008.8
20260905203518 77 270 2.0 5.0 0.00 0.00 0.00 89 1008.7
20260905202515 77 225 4.0 7.0 0.00 0.00 0.00 88 1008.6
20260905201518 79 225 3.0 9.0 0.00 0.00 0.00 85 1008.7
20260905200517 82 113 1.0 5.0 0.00 0.00 0.00 80 1008.7
20260905195600 82 68 1.0 3.0 0.00 0.00 0.00 78 1008.8
20260905194519 82 270 1.0 2.0 0.00 0.00 0.00 79 1008.8
20260905193517 81 0.0 2.0 0.00 0.00 0.00 80 1008.7
20260905192517 81 135 1.0 2.0 0.00 0.00 0.00 80 1008.9
20260905191517 81 180 1.0 4.0 0.00 0.00 0.00 79 1008.9
20260905190518 81 90 1.0 3.0 0.00 0.00 0.00 80 1009.0
20260905185518 81 0.0 3.0 0.00 0.00 0.00 81 1009.0
20260905184518 80 0.0 1.0 0.00 0.00 0.00 82 1009.0
20260905183518 79 68 1.0 4.0 0.00 0.00 0.00 84 1008.7
20260905182535 79 90 2.0 5.0 0.00 0.00 0.00 84 1008.3
20260905181518 78 90 2.0 5.0 0.00 0.00 0.00 84 1008.8
20260905180539 78 68 1.0 4.0 0.00 0.00 0.00 84 1009.5
20260905175517 79 0.0 3.0 0.00 0.00 0.00 85 1009.5
20260905174521 79 0.0 3.0 0.00 0.00 0.00 85 1010.0
20260905173521 79 0.0 2.0 0.00 0.00 0.00 84 1010.8
20260905172517 79 0.0 0.0 0.00 0.00 0.00 83 1010.9
20260905171517 80 0.0 2.0 0.00 0.00 0.00 83 1010.8
20260905170517 80 270 2.0 4.0 0.00 0.00 0.00 82 1010.9
20260905165517 81 293 2.0 4.0 0.00 0.00 0.00 81 1010.9
20260905164537 81 315 1.0 4.0 0.00 0.00 0.00 79 1010.7
20260905163518 82 0.0 1.0 0.00 0.00 0.00 80 1010.7
20260905162519 82 293 3.0 6.0 0.00 0.00 0.00 76 1010.7
20260905161518 82 270 2.0 7.0 0.00 0.00 0.00 79 1010.5
20260905160518 82 0.0 3.0 0.00 0.00 0.00 82 1010.5
20260905155558 82 293 2.0 5.0 0.00 0.00 0.00 80 1010.6
20260905154538 82 293 1.0 4.0 0.00 0.00 0.00 81 1010.5
20260905153518 81 270 2.0 6.0 0.00 0.00 0.00 81 1010.6
20260905152517 82 315 2.0 6.0 0.00 0.00 0.00 80 1010.5
20260905151518 82 315 1.0 5.0 0.00 0.00 0.00 82 1010.6
20260905150519 82 0.0 1.0 0.00 0.00 0.00 81 1010.8
20260905145518 81 293 1.0 5.0 0.00 0.00 0.00 81 1010.7
20260905144538 82 0.0 1.0 0.00 0.00 0.00 82 1010.8
20260905143517 82 293 2.0 6.0 0.00 0.00 0.00 81 1010.7
20260905142529 82 315 1.0 6.0 0.00 0.00 0.00 81 1010.5
20260905141538 81 293 2.0 5.0 0.00 0.00 0.00 81 1010.4
20260905140517 81 293 2.0 5.0 0.00 0.00 0.00 83 1010.3
20260905135517 81 0.0 4.0 0.00 0.00 0.00 84 1010.1
20260905134518 80 0.0 2.0 0.00 0.00 0.00 84 1010.2
20260905133517 80 0.0 1.0 0.00 0.00 0.00 86 1010.2
20260905132517 79 0.0 3.0 0.00 0.00 0.00 85 1010.3
20260905131518 79 0.0 1.0 0.00 0.00 0.00 86 1010.3
20260905130519 79 0.0 3.0 0.00 0.00 0.00 85 1010.1
20260905125517 79 0.0 1.0 0.00 0.00 0.00 87 1009.9
20260905124517 78 0.0 2.0 0.00 0.00 0.00 88 1010.0
20260905123517 76 0.0 1.0 0.00 0.00 0.00 91 1010.2
20260905122537 75 0.0 3.0 0.00 0.00 0.00 92 1010.0
20260905121540 74 0.0 1.0 0.00 0.00 0.00 94 1010.0
20260905120600 74 0.0 1.0 0.00 0.00 0.00 96 1009.8
20260905115517 73 0.0 1.0 0.00 0.00 0.00 96 1009.9
20260905115017 73 0.0 1.0 0.00 0.00 0.00 96 1009.9
20260905114017 72 0.0 0.0 0.00 0.00 0.00 96 1009.9
20260905113017 72 0.0 0.0 0.00 0.01 0.00 96 1009.7
20260905112038 71 0.0 0.0 0.00 0.01 0.00 97 1009.5
20260905111058 70 0.0 0.0 0.00 0.01 0.00 96 1009.5
20260905110017 70 0.0 0.0 0.00 0.01 0.00 95 1009.4
20260905105017 70 0.0 0.0 0.00 0.01 0.00 95 1009.2
20260905104017 70 0.0 0.0 0.00 0.01 0.00 95 1009.2
20260905103042 70 0.0 0.0 0.00 0.01 0.00 95 1009.1
20260905102038 70 0.0 0.0 0.00 0.01 0.00 95 1009.0
20260905101534 70 0.0 0.0 0.00 0.01 0.00 95 1009.0
20260905100537 71 0.0 0.0 0.00 0.01 0.00 95 1008.9
20260905095517 71 0.0 0.0 0.00 0.01 0.00 95 1008.9
20260905094517 71 0.0 0.0 0.00 0.01 0.00 94 1008.7
20260905093519 71 0.0 0.0 0.00 0.01 0.00 94 1008.6
20260905092517 71 0.0 0.0 0.00 0.01 0.00 94 1008.7
20260905091539 71 0.0 0.0 0.00 0.01 0.00 93 1008.6
20260905091017 71 0.0 0.0 0.00 0.01 0.00 93 1008.6
20260905090016 72 0.0 0.0 0.00 0.01 0.00 93 1008.8
20260905085017 72 0.0 0.0 0.00 0.01 0.00 93 1008.7
20260905084017 72 0.0 0.0 0.00 0.01 0.00 93 1008.8
20260905083517 73 0.0 0.0 0.00 0.01 0.00 94 1008.7
20260905082517 73 0.0 0.0 0.00 0.01 0.00 94 1008.8
20260905081517 73 0.0 0.0 0.00 0.01 0.00 93 1008.9
20260905080537 73 0.0 2.0 0.00 0.01 0.00 93 1009.0
20260905075518 74 0.0 2.0 0.00 0.01 0.00 93 1009.0
20260905074540 74 293 2.0 4.0 0.00 0.01 0.00 93 1009.2
20260905073516 74 270 2.0 4.0 0.00 0.01 0.00 93 1009.2
20260905072518 74 293 1.0 3.0 0.00 0.01 0.00 93 1009.1
20260905071519 74 293 2.0 5.0 0.00 0.01 0.00 93 1009.3
20260905070517 74 293 2.0 5.0 0.00 0.01 0.00 93 1009.3
20260905065517 74 293 3.0 6.0 0.00 0.01 0.00 94 1009.4
20260905064517 74 270 2.0 4.0 0.00 0.01 0.00 94 1009.5
20260905063517 74 248 2.0 5.0 0.00 0.01 0.00 94 1009.6
20260905062537 74 270 2.0 5.0 0.00 0.01 0.00 93 1009.8
20260905061517 74 248 2.0 3.0 0.00 0.01 0.00 93 1009.8
20260905060517 74 270 2.0 3.0 0.00 0.01 0.00 93 1009.8
20260905055517 74 248 1.0 3.0 0.00 0.01 0.00 92 1010.0
20260905054517 74 270 1.0 3.0 0.00 0.02 0.00 92 1010.0